Location: Natural Bridges National Monument
(37.6093°N, 109.9767°W)
Time: 11:23:58
(UTC-06:00)

Amateur Radio Satellites - All Passes

Search period start: 25 September 2016 10:53
Search period end: 26 September 2016 10:53
Location: Natural Bridges National Monument, 37.6093°N, 109.9767°W

Satellite Date Start Highest point End Downlink Frequencies (MHz)
Time Altitude Azimuth
FUNcube-1 25 Sep 11:02:50 11:06:54 43° 287° (WNW) 11:11:03 145.935
AAUSAT CUBESAT 2 25 Sep 11:03:01 11:05:35 16° 293° (WNW) 11:08:11 437.432
UWE-3 25 Sep 11:07:42 11:11:04 23° 290° (WNW) 11:14:29 435.000/436.395/437.385
HO-68 25 Sep 11:08:54 11:13:42 20° 302° (WNW) 11:18:31 435.675
UNISAT 6 25 Sep 11:10:56 11:15:08 54° 260° (W) 11:19:19 437.425
DELFI C3 25 Sep 11:11:51 11:15:53 81° 282° (WNW) 11:19:53 145.870
BEESAT 3 25 Sep 11:23:09 11:27:08 78° 59° (ENE) 11:31:05 437.485
QB50P1 25 Sep 11:25:23 11:28:49 25° 70° (ENE) 11:32:16 145.935-145.965
DUCHIFAT 1 25 Sep 11:26:43 11:30:00 22° 69° (ENE) 11:33:16 145.980
PHONESAT 2.4 25 Sep 11:36:47 11:38:51 18° 148° (SSE) 11:40:56 2401.200-2431.200
POPSAT HIP 1 25 Sep 11:38:12 11:42:00 34° 72° (ENE) 11:45:48 437.405
BUGSAT 1 25 Sep 11:42:32 11:44:34 14° 66° (ENE) 11:46:36 437.445
ZACube-1 25 Sep 11:44:34 11:47:01 15° 293° (WNW) 11:49:29 437.345
JAS-2 25 Sep 11:45:41 11:51:28 39° 66° (ENE) 11:57:55 435.910
ANTELSAT 25 Sep 11:47:35 11:50:51 21° 265° (W) 11:54:07 437.575/2403.000
Oscar 11 25 Sep 11:48:25 11:50:45 14° 294° (WNW) 11:53:04 145.826/435.025
NANOSAT C BR1 25 Sep 11:56:14 12:00:20 54° 74° (ENE) 12:04:26 145.865
Cosmos 2499 25 Sep 12:02:10 12:04:50 12° 296° (WNW) 12:07:30 435.465 / 435.565
TIGRISAT 25 Sep 12:10:28 12:12:24 13° 268° (W) 12:14:19 435.000
GONETS M04 25 Sep 12:11:38 12:15:21 13° 299° (WNW) 12:19:04
BEESAT 2 25 Sep 12:12:40 12:16:38 59° 242° (WSW) 12:20:34 435.950
QB50P2 25 Sep 12:16:45 12:20:58 74° 258° (WSW) 12:25:11 145.880/145.840
POLYITAN 1 25 Sep 12:19:01 12:23:13 73° 258° (WSW) 12:27:25 437.675
ESTCUBE 1 25 Sep 12:22:37 12:26:55 41° 99° (E) 12:31:11 437.505/2401.250
HUMSAT D 25 Sep 12:29:37 12:32:55 22° 291° (WNW) 12:36:14 437.325/437.525
Oscar 19 25 Sep 12:30:20 12:32:07 12° 61° (ENE) 12:33:53 437.125/150
VELOX 1 25 Sep 12:34:40 12:38:21 26° 96° (E) 12:42:00 145.980
DX 1 25 Sep 12:37:00 12:39:47 17° 94° (E) 12:42:33 434.975-435.025
M-CUBED/EXP-1 PRIME 25 Sep 12:39:21 12:40:42 12° 99° (E) 12:42:02 437.505
CUBEBUG 1 25 Sep 12:46:01 12:50:13 46° 99° (E) 12:54:22 437.445
QB50P1 25 Sep 13:01:06 13:04:30 24° 264° (W) 13:07:55 145.935-145.965
DUCHIFAT 1 25 Sep 13:02:00 13:05:32 26° 264° (W) 13:09:04 145.980
Gurwin Techsat 1B 25 Sep 13:05:11 13:07:12 12° 61° (ENE) 13:09:13 435.225
PHONESAT 2.4 25 Sep 13:11:46 13:14:43 90° 317° (NW) 13:17:42 2401.200-2431.200
POPSAT HIP 1 25 Sep 13:15:04 13:17:51 17° 266° (W) 13:20:39 437.405
BUGSAT 1 25 Sep 13:15:35 13:19:33 45° 260° (W) 13:23:30 437.445
AISAT 25 Sep 13:26:33 13:30:57 74° 284° (WNW) 13:35:18 437.250
JAS-2 25 Sep 13:30:58 13:36:31 33° 266° (W) 13:42:43 435.910
50 SAT 25 Sep 13:31:59 13:35:36 56° 285° (WNW) 13:39:10 437.505
NANOSAT C BR1 25 Sep 13:35:21 13:36:21 11° 269° (W) 13:37:22 145.865
TISAT 1 25 Sep 13:37:07 13:38:53 12° 92° (E) 13:40:39 437.305
AUBIESAT-1 25 Sep 13:37:10 13:40:28 66° 106° (ESE) 13:43:45 437.475
SPROUT 25 Sep 13:40:11 13:44:27 83° 103° (ESE) 13:48:42 437.525
UKube-1 25 Sep 13:48:35 13:52:55 87° 100° (E) 13:57:13 .
ESTCUBE 1 25 Sep 14:00:22 14:03:22 18° 294° (WNW) 14:06:22 437.505/2401.250
Cosmos 2491 25 Sep 14:00:37 14:03:51 13° 75° (ENE) 14:07:06 435.465 / 435.565
YUBILEINY 25 Sep 14:03:19 14:10:40 29° 71° (ENE) 14:17:58 435.215
PCSat 25 Sep 14:03:33 14:08:02 25° 52° (NE) 14:12:29 145.827
Oscar 19 25 Sep 14:05:29 14:10:41 83° 257° (WSW) 14:15:55 437.125/150
AIST 2 25 Sep 14:10:44 14:14:56 83° 58° (ENE) 14:19:08 435.215
VELOX 1 25 Sep 14:11:05 14:14:43 25° 291° (WNW) 14:18:18 145.980
DX 1 25 Sep 14:12:04 14:16:05 38° 289° (WNW) 14:20:05 434.975-435.025
M-CUBED/EXP-1 PRIME 25 Sep 14:12:30 14:15:20 27° 293° (WNW) 14:18:08 437.505
AO-7 25 Sep 14:14:47 14:19:58 18° 53° (NE) 14:25:09 29.400- 29.500
CUBEBUG 1 25 Sep 14:23:44 14:26:04 14° 295° (WNW) 14:28:24 437.445
BEESAT 25 Sep 14:37:50 14:39:35 12° 91° (E) 14:41:20 436.000
Gurwin Techsat 1B 25 Sep 14:41:05 14:46:24 82° 258° (WSW) 14:51:44 435.225
Cosmos 2504 25 Sep 14:46:02 14:50:53 18° 68° (ENE) 14:55:54 435.465 / 435.565
PHONESAT 2.4 25 Sep 14:48:09 14:51:01 44° 359° (N) 14:53:53 2401.200-2431.200
ITAMSAT 1 25 Sep 14:53:10 14:57:50 35° 69° (ENE) 15:02:31 435.822/435.867
TISAT 1 25 Sep 15:10:46 15:14:45 46° 287° (WNW) 15:18:44 437.305
ITUPSAT 1 25 Sep 15:45:03 15:49:50 64° 101° (ESE) 15:54:36 437.325
PCSat 25 Sep 15:46:28 15:51:35 43° 249° (WSW) 15:56:40 145.827
SO-50 25 Sep 15:47:07 15:51:24 32° 113° (ESE) 15:55:41 436.795
Cosmos 2491 25 Sep 15:50:20 15:59:05 77° 94° (E) 16:07:54 435.465 / 435.565
YUBILEINY 25 Sep 15:59:26 16:07:50 56° 270° (W) 16:16:13 435.215
SWISSCUBE 25 Sep 15:59:39 16:04:28 79° 285° (WNW) 16:09:16 437.505
AO-7 25 Sep 16:03:13 16:11:33 85° 72° (ENE) 16:19:55 29.400- 29.500
BEESAT 25 Sep 16:13:00 16:17:45 64° 287° (WNW) 16:22:28 436.000
PHONESAT 2.4 25 Sep 16:24:22 16:27:20 77° 13° (NNE) 16:30:19 2401.200-2431.200
MOZHAYETS 4 25 Sep 16:26:10 16:30:13 29° 96° (E) 16:34:15
BRITE-PL 25 Sep 16:32:03 16:33:17 11° 60° (ENE) 16:34:30 437.365/2234.400
ITAMSAT 1 25 Sep 16:33:08 16:37:19 25° 265° (W) 16:41:33 435.822/435.867
Cosmos 2504 25 Sep 16:37:31 16:44:55 76° 266° (W) 16:52:49 435.465 / 435.565
KKS-1 25 Sep 17:10:35 17:14:57 55° 100° (E) 17:19:17 437.445
ITUPSAT 1 25 Sep 17:24:49 17:27:05 13° 297° (WNW) 17:29:22 437.325
HORYU 2 25 Sep 17:26:57 17:31:16 57° 74° (ENE) 17:35:36 437.375
SO-50 25 Sep 17:27:40 17:31:53 29° 309° (NW) 17:36:03 436.795
O/OREOS (USA 219) 25 Sep 17:37:26 17:41:17 26° 61° (ENE) 17:45:07 437.305
CUBESAT XI-V 25 Sep 17:39:03 17:42:43 22° 94° (E) 17:46:22 437.345
AIST 1 25 Sep 17:40:35 17:44:51 69° 266° (W) 17:49:04
Cosmos 2491 25 Sep 17:50:36 17:56:50 21° 294° (WNW) 18:03:09 435.465 / 435.565
STARS 25 Sep 17:51:29 17:55:52 76° 103° (ESE) 18:00:13 437.465
AO-7 25 Sep 17:59:58 18:05:09 18° 268° (W) 18:10:20 29.400- 29.500
PHONESAT 2.4 25 Sep 18:00:53 18:03:17 22° 210° (SSW) 18:05:41 2401.200-2431.200
MOZHAYETS 4 25 Sep 18:03:28 18:07:14 25° 291° (WNW) 18:11:00
LilacSat-2 25 Sep 18:04:32 18:07:26 21° 70° (ENE) 18:10:21 437.200
NOAA 15 25 Sep 18:04:54 18:09:46 38° 70° (ENE) 18:14:40 137.62
BRITE-PL 25 Sep 18:05:08 18:10:49 79° 76° (ENE) 18:16:29 437.365/2234.400
GOMX 1 25 Sep 18:08:45 18:13:44 38° 72° (ENE) 18:18:35 467.674
Cubesat XI-IV 25 Sep 18:11:47 18:16:34 35° 69° (ENE) 18:21:22 437.490
CUTE-I 25 Sep 18:12:45 18:17:34 36° 69° (ENE) 18:22:23 437.470
NOAA 18 25 Sep 18:31:34 18:36:45 46° 71° (ENE) 18:41:58 137.9125
Cosmos 2504 25 Sep 18:36:14 18:37:04 10° 282° (WNW) 18:37:53 435.465 / 435.565
DOVE 4 25 Sep 18:43:42 18:48:20 36° 72° (ENE) 18:52:45 437.250
KKS-1 25 Sep 18:49:00 18:51:01 13° 296° (WNW) 18:53:01 437.445
HORYU 2 25 Sep 19:06:46 19:08:08 11° 268° (W) 19:09:31 437.375
CUBESAT XI-V 25 Sep 19:15:56 19:20:07 33° 289° (WNW) 19:24:16 437.345
O/OREOS (USA 219) 25 Sep 19:16:42 19:20:37 28° 257° (WSW) 19:24:30 437.305
STRAND 1 25 Sep 19:19:01 19:20:26 11° 90° (E) 19:21:52 437.568
RS-15 25 Sep 19:19:57 19:28:29 25° 100° (E) 19:37:16 29.354- 29.394
CUSAT 1 25 Sep 19:27:37 19:32:53 37° 87° (E) 19:39:20 437.405
LilacSat-2 25 Sep 19:38:42 19:41:38 21° 265° (W) 19:44:34 437.200
CUTE 1.7 + AOD 2 25 Sep 19:39:06 19:42:21 22° 69° (ENE) 19:45:37 437.475
CANX-2 25 Sep 19:39:33 19:43:02 25° 70° (ENE) 19:46:33 2200.000
NOAA 15 25 Sep 19:45:23 19:49:37 24° 265° (W) 19:53:52 137.62
SEEDS 25 Sep 19:45:44 19:48:35 18° 68° (ENE) 19:51:27 437.485
HO-68 25 Sep 19:45:56 19:52:42 47° 67° (ENE) 19:59:28 435.675
BRITE-PL 25 Sep 19:47:15 19:49:46 13° 271° (W) 19:52:17 437.365/2234.400
GOMX 1 25 Sep 19:47:22 19:51:49 25° 265° (W) 19:56:09 467.674
Cubesat XI-IV 25 Sep 19:52:16 19:56:38 26° 264° (W) 20:01:03 437.490
CUTE-I 25 Sep 19:53:20 19:57:39 25° 265° (W) 20:02:00 437.470
Cosmos 2499 25 Sep 19:56:00 20:02:23 29° 73° (ENE) 20:09:06 435.465 / 435.565
CUBEBUG 2 25 Sep 20:04:11 20:06:36 15° 67° (ENE) 20:08:59 437.445
NOAA 18 25 Sep 20:13:33 20:17:36 21° 265° (W) 20:21:39 137.9125
CINEMA 3 25 Sep 20:14:10 20:18:45 82° 77° (ENE) 20:23:09 145.822/145.860
AAUSAT CUBESAT 2 25 Sep 20:15:23 20:18:28 20° 69° (ENE) 20:21:33 437.432
GONETS M04 25 Sep 20:20:56 20:29:31 53° 78° (ENE) 20:37:58
DOVE 4 25 Sep 20:21:56 20:26:00 24° 265° (W) 20:29:56 437.250
UWE-3 25 Sep 20:27:10 20:29:57 18° 68° (ENE) 20:32:43 435.000/436.395/437.385
DANDE 25 Sep 20:34:42 20:39:08 47° 90° (E) 20:45:03 436.750
STRAND 1 25 Sep 20:54:57 21:00:07 76° 284° (WNW) 21:05:15 437.568
COMPASS 1 25 Sep 20:55:52 21:00:02 81° 75° (ENE) 21:04:14 437.405
ZACube-1 25 Sep 21:01:22 21:04:51 26° 70° (ENE) 21:08:18 437.345
Oscar 11 25 Sep 21:03:52 21:07:33 29° 70° (ENE) 21:11:16 145.826/435.025
CUSAT 1 25 Sep 21:09:31 21:14:52 34° 290° (WNW) 21:21:24 437.405
ISS 25 Sep 21:12:11 21:15:16 40° 135° (SE) 21:18:20 145.825
CUTE 1.7 + AOD 2 25 Sep 21:14:24 21:18:01 28° 264° (W) 21:21:41 437.475
CANX-2 25 Sep 21:15:25 21:18:48 23° 265° (W) 21:22:14 2200.000
SEEDS 25 Sep 21:20:12 21:24:00 34° 263° (W) 21:27:51 437.485
AO-85 25 Sep 21:27:30 21:32:08 32° 113° (ESE) 21:36:33 145.980
RS-15 25 Sep 21:27:49 21:39:24 82° 301° (WNW) 21:51:41 29.354- 29.394
HO-68 25 Sep 21:34:22 21:40:32 31° 264° (W) 21:46:43 435.675
CUBEBUG 2 25 Sep 21:38:53 21:42:54 40° 262° (W) 21:46:51 437.445
HUMSAT D 25 Sep 21:44:24 21:46:44 15° 67° (ENE) 21:49:05 437.325/437.525
PRISM 25 Sep 21:46:04 21:49:51 34° 98° (E) 21:53:36 437.425
Cosmos 2499 25 Sep 21:48:27 21:55:40 51° 269° (W) 22:03:26 435.465 / 435.565
AAUSAT CUBESAT 2 25 Sep 21:50:08 21:53:45 29° 264° (W) 21:57:23 437.432
JUGNU 25 Sep 21:54:54 21:56:01 10° 170° (S) 21:57:07 437.505
DELFI C3 25 Sep 21:55:30 21:59:15 41° 73° (ENE) 22:03:03 145.870
FUNcube-1 25 Sep 21:56:06 22:00:14 72° 259° (WSW) 22:04:22 145.935
UWE-3 25 Sep 22:02:22 22:06:10 33° 263° (W) 22:09:56 435.000/436.395/437.385
GONETS M04 25 Sep 22:18:29 22:25:50 31° 276° (W) 22:33:10
DANDE 25 Sep 22:18:50 22:22:31 20° 297° (WNW) 22:26:55 436.750
TIGRISAT 25 Sep 22:26:41 22:28:04 11° 91° (E) 22:29:27 435.000
ZACube-1 25 Sep 22:37:54 22:41:05 21° 265° (W) 22:44:17 437.345
Oscar 11 25 Sep 22:40:20 22:43:39 22° 265° (W) 22:47:00 145.826/435.025
ISS 25 Sep 22:49:13 22:51:51 22° 331° (NNW) 22:54:30 145.825
UNISAT 6 25 Sep 23:04:14 23:08:14 33° 97° (E) 23:12:18 437.425
AO-85 25 Sep 23:07:53 23:12:33 33° 307° (NW) 23:16:58 145.980
HUMSAT D 25 Sep 23:18:13 23:22:00 38° 262° (W) 23:25:52 437.325/437.525
ESTCUBE 1 25 Sep 23:20:19 23:24:15 30° 70° (ENE) 23:28:14 437.505/2401.250
PRISM 25 Sep 23:22:08 23:24:52 17° 293° (WNW) 23:27:35 437.425
M-CUBED/EXP-1 PRIME 25 Sep 23:23:09 23:25:53 17° 64° (ENE) 23:28:30 437.505
VELOX 1 25 Sep 23:30:33 23:33:43 19° 67° (ENE) 23:36:54 145.980
DX 1 25 Sep 23:31:51 23:33:42 12° 64° (ENE) 23:35:31 434.975-435.025
DELFI C3 25 Sep 23:32:29 23:34:17 13° 268° (W) 23:36:05 145.870
ANTELSAT 25 Sep 23:39:26 23:43:51 86° 101° (E) 23:48:21 437.575/2403.000
CUBEBUG 1 25 Sep 23:40:03 23:43:57 31° 71° (ENE) 23:47:50 437.445
JUGNU 25 Sep 23:41:29 23:44:08 13° 180° (S) 23:46:47 437.505
RS-15 25 Sep 23:44:22 23:54:05 28° 328° (NNW) 00:04:12 29.354- 29.394
TIGRISAT 26 Sep 00:00:45 00:05:03 57° 285° (WNW) 00:09:25 435.000
QB50P2 26 Sep 00:04:17 00:07:25 20° 95° (E) 00:10:32 145.880/145.840
POLYITAN 1 26 Sep 00:06:31 00:09:39 20° 95° (E) 00:12:46 437.675
50 SAT 26 Sep 00:06:33 00:09:58 41° 74° (ENE) 00:13:25 437.505
AUBIESAT-1 26 Sep 00:20:39 00:24:47 64° 70° (ENE) 00:28:38 437.475
SO-50 26 Sep 00:20:45 00:24:00 19° 46° (NE) 00:27:12 436.795
AISAT 26 Sep 00:21:31 00:25:58 76° 76° (ENE) 00:30:26 437.250
SPROUT 26 Sep 00:31:33 00:35:38 47° 73° (ENE) 00:39:45 437.525
SRMSAT 26 Sep 00:34:29 00:36:16 11° 172° (S) 00:38:03 437.500
UKube-1 26 Sep 00:40:53 00:45:06 56° 74° (ENE) 00:49:21 .
JAS-2 26 Sep 00:41:12 00:48:43 46° 97° (E) 00:55:51 435.910
UNISAT 6 26 Sep 00:41:31 00:44:44 20° 292° (WNW) 00:47:58 437.425
QB50P1 26 Sep 00:46:37 00:50:48 60° 101° (E) 00:54:57 145.935-145.965
DUCHIFAT 1 26 Sep 00:47:06 00:51:12 52° 100° (E) 00:55:17 145.980
M-CUBED/EXP-1 PRIME 26 Sep 00:56:10 01:00:09 37° 256° (WSW) 01:03:54 437.505
ESTCUBE 1 26 Sep 00:57:29 01:01:02 23° 265° (W) 01:04:38 437.505/2401.250
BUGSAT 1 26 Sep 00:59:24 01:02:49 26° 97° (E) 01:06:14 437.445
POPSAT HIP 1 26 Sep 00:59:53 01:04:06 86° 102° (ESE) 01:08:19 437.405
DX 1 26 Sep 01:05:03 01:09:21 57° 259° (W) 01:13:41 434.975-435.025
VELOX 1 26 Sep 01:05:49 01:09:54 35° 262° (W) 01:14:01 145.980
BEESAT 3 26 Sep 01:12:37 01:15:27 20° 111° (ESE) 01:18:20 437.485
CUBEBUG 1 26 Sep 01:16:51 01:20:13 21° 265° (W) 01:23:36 437.445
NANOSAT C BR1 26 Sep 01:17:54 01:22:02 60° 285° (WNW) 01:26:10 145.865
JUGNU 26 Sep 01:31:55 01:32:15 10° 191° (S) 01:32:37 437.505
QB50P2 26 Sep 01:39:33 01:43:12 29° 290° (WNW) 01:46:52 145.880/145.840
POLYITAN 1 26 Sep 01:41:47 01:45:27 29° 289° (WNW) 01:49:06 437.675
BEESAT 26 Sep 01:42:59 01:44:48 12° 62° (ENE) 01:46:37 436.000
50 SAT 26 Sep 01:43:10 01:43:40 10° 268° (W) 01:44:11 437.505
TISAT 1 26 Sep 01:59:53 02:04:05 85° 257° (WSW) 02:08:18 437.305
SO-50 26 Sep 02:00:21 02:04:45 49° 244° (WSW) 02:09:02 436.795
BEESAT 2 26 Sep 02:02:37 02:06:12 35° 114° (ESE) 02:09:51 435.950
Cosmos 2491 26 Sep 02:03:38 02:11:33 35° 73° (ENE) 02:19:21 435.465 / 435.565
RS-15 26 Sep 02:05:21 02:12:47 17° 4° (N) 02:20:16 29.354- 29.394
SPROUT 26 Sep 02:09:51 02:11:48 13° 268° (W) 02:13:46 437.525
Oscar 19 26 Sep 02:19:14 02:24:05 40° 98° (E) 02:28:52 437.125/150
UKube-1 26 Sep 02:20:09 02:21:27 11° 268° (W) 02:22:46 .
SRMSAT 26 Sep 02:21:53 02:24:33 13° 182° (S) 02:27:13 437.500
DUCHIFAT 1 26 Sep 02:24:44 02:26:25 12° 295° (WNW) 02:28:06 145.980
QB50P1 26 Sep 02:24:58 02:26:01 11° 296° (WNW) 02:27:04 145.935-145.965
JAS-2 26 Sep 02:26:25 02:33:26 37° 294° (WNW) 02:40:14 435.910
BUGSAT 1 26 Sep 02:35:03 02:38:02 20° 291° (WNW) 02:41:00 437.445
BEESAT 3 26 Sep 02:49:26 02:52:54 30° 307° (NW) 02:56:24 437.485
ITUPSAT 1 26 Sep 02:49:44 02:54:24 59° 74° (ENE) 02:59:06 437.325
Gurwin Techsat 1B 26 Sep 02:59:21 03:04:29 46° 100° (E) 03:09:33 435.225
YUBILEINY 26 Sep 03:01:51 03:09:36 36° 86° (E) 03:17:17 435.215
SWISSCUBE 26 Sep 03:03:58 03:08:42 85° 257° (WSW) 03:13:30 437.505
ITAMSAT 1 26 Sep 03:09:13 03:11:58 14° 92° (E) 03:14:44 435.822/435.867
BEESAT 26 Sep 03:17:14 03:21:57 69° 258° (WSW) 03:26:43 436.000
Cosmos 2504 26 Sep 03:25:09 03:28:42 14° 80° (E) 03:32:11 435.465 / 435.565
MOZHAYETS 4 26 Sep 03:26:33 03:30:06 23° 68° (ENE) 03:33:39
BEESAT 2 26 Sep 03:41:15 03:44:07 19° 311° (NW) 03:47:00 435.950
ISS 26 Sep 03:41:44 03:44:36 27° 31° (NNE) 03:47:28 145.825
Oscar 19 26 Sep 03:59:10 04:03:06 23° 294° (WNW) 04:07:02 437.125/150
Cosmos 2491 26 Sep 04:00:11 04:08:31 48° 271° (W) 04:16:48 435.465 / 435.565
KKS-1 26 Sep 04:06:38 04:10:48 40° 72° (ENE) 04:14:58 437.445
AIST 2 26 Sep 04:06:51 04:10:16 26° 112° (ESE) 04:13:43 435.215
AO-7 26 Sep 04:07:39 04:14:50 32° 97° (E) 04:21:58 29.400- 29.500
RS-15 26 Sep 04:20:07 04:30:58 33° 38° (NE) 04:41:38 29.354- 29.394
ITUPSAT 1 26 Sep 04:30:31 04:32:35 13° 268° (W) 04:34:40 437.325
Gurwin Techsat 1B 26 Sep 04:40:10 04:44:03 21° 295° (WNW) 04:47:56 435.225
CUBESAT XI-V 26 Sep 04:40:55 04:44:08 19° 66° (ENE) 04:47:23 437.345
PCSat 26 Sep 04:43:14 04:47:57 31° 109° (ESE) 04:52:42 145.827
STARS 26 Sep 04:45:59 04:50:14 51° 73° (ENE) 04:54:30 437.465
ITAMSAT 1 26 Sep 04:46:39 04:51:49 62° 287° (WNW) 04:56:57 435.822/435.867
YUBILEINY 26 Sep 04:57:47 05:06:07 46° 284° (WNW) 05:14:27 435.215
MOZHAYETS 4 26 Sep 05:03:01 05:07:04 31° 263° (W) 05:11:09
Cosmos 2504 26 Sep 05:13:33 05:21:06 83° 277° (W) 05:28:20 435.465 / 435.565
ISS 26 Sep 05:18:09 05:21:05 30° 227° (SW) 05:24:00 145.825
HORYU 2 26 Sep 05:21:37 05:23:30 12° 92° (E) 05:25:23 437.375
KKS-1 26 Sep 05:44:38 05:47:29 17° 266° (W) 05:50:22 437.445
AIST 2 26 Sep 05:45:13 05:48:40 26° 309° (NW) 05:52:10 435.215
AO-7 26 Sep 05:59:51 06:07:50 54° 294° (WNW) 06:15:47 29.400- 29.500
AO-85 26 Sep 06:02:13 06:04:31 14° 44° (NE) 06:06:45 145.980
CUSAT 1 26 Sep 06:03:56 06:10:31 29° 68° (ENE) 06:16:17 437.405
AIST 1 26 Sep 06:07:18 06:11:41 77° 96° (E) 06:16:05
BRITE-PL 26 Sep 06:13:28 06:17:34 27° 94° (E) 06:21:23 437.365/2234.400
CUBESAT XI-V 26 Sep 06:16:45 06:21:10 41° 262° (W) 06:25:39 437.345
NOAA 15 26 Sep 06:23:03 06:26:20 16° 92° (E) 06:29:36 137.62
STARS 26 Sep 06:24:58 06:26:51 13° 268° (W) 06:28:44 437.465
PCSat 26 Sep 06:26:23 06:31:15 33° 305° (NW) 06:36:10 145.827
Cubesat XI-IV 26 Sep 06:31:52 06:35:08 16° 92° (E) 06:38:25 437.490
RS-15 26 Sep 06:32:33 06:44:59 83° 243° (WSW) 06:57:02 29.354- 29.394
CUTE-I 26 Sep 06:32:36 06:35:59 17° 93° (E) 06:39:21 437.470
STRAND 1 26 Sep 06:32:38 06:35:21 15° 63° (ENE) 06:38:04 437.568
HORYU 2 26 Sep 06:56:00 07:00:20 53° 286° (WNW) 07:04:39 437.375
NOAA 18 26 Sep 06:56:06 07:00:19 22° 95° (E) 07:04:32 137.9125
Cosmos 2504 26 Sep 07:12:46 07:15:30 12° 295° (WNW) 07:18:15 435.465 / 435.565
LilacSat-2 26 Sep 07:12:52 07:16:31 41° 99° (E) 07:20:10 437.200
DANDE 26 Sep 07:13:41 07:21:41 46° 74° (ENE) 07:29:12 436.750
AO-85 26 Sep 07:41:20 07:45:19 52° 244° (WSW) 07:49:05 145.980
CUSAT 1 26 Sep 07:45:27 07:52:56 53° 269° (W) 07:59:13 437.405
O/OREOS (USA 219) 26 Sep 07:47:20 07:51:35 41° 105° (ESE) 07:55:53 437.305
GOMX 1 26 Sep 07:50:46 07:55:09 61° 285° (WNW) 07:59:17 467.674
BRITE-PL 26 Sep 07:51:56 07:55:57 26° 292° (WNW) 07:59:42 437.365/2234.400
AO-7 26 Sep 07:57:21 07:58:43 10° 314° (NW) 08:00:05 29.400- 29.500
NOAA 15 26 Sep 08:01:14 08:06:25 55° 288° (WNW) 08:11:33 137.62
STRAND 1 26 Sep 08:08:54 08:13:56 64° 258° (WSW) 08:19:01 437.568
Cubesat XI-IV 26 Sep 08:10:18 08:15:32 57° 287° (WNW) 08:20:46 437.490
CUTE-I 26 Sep 08:11:06 08:16:19 55° 288° (WNW) 08:21:33 437.470
CINEMA 3 26 Sep 08:11:22 08:14:27 20° 95° (E) 08:17:35 145.822/145.860
DOVE 4 26 Sep 08:21:55 08:26:06 67° 285° (WNW) 08:30:12 437.250
Cosmos 2499 26 Sep 08:32:25 08:37:36 22° 84° (E) 08:42:41 435.465 / 435.565
PRISM 26 Sep 08:34:03 08:37:07 20° 68° (ENE) 08:40:12 437.425
NOAA 18 26 Sep 08:35:58 08:41:07 43° 290° (WNW) 08:46:15 137.9125
COMPASS 1 26 Sep 08:41:57 08:44:22 15° 92° (E) 08:46:45 437.405
RS-15 26 Sep 08:48:00 08:55:31 19° 262° (W) 09:02:56 29.354- 29.394
LilacSat-2 26 Sep 08:48:48 08:50:25 12° 293° (WNW) 08:52:03 437.200
DANDE 26 Sep 08:56:43 09:04:16 39° 272° (W) 09:11:24 436.750
CUTE 1.7 + AOD 2 26 Sep 09:00:22 09:04:36 55° 100° (E) 09:08:49 437.475
CANX-2 26 Sep 09:01:11 09:05:29 67° 100° (E) 09:09:45 2200.000
HO-68 26 Sep 09:02:47 09:09:50 59° 102° (ESE) 09:16:51 435.675
SEEDS 26 Sep 09:05:30 09:09:34 42° 98° (E) 09:13:36 437.485
GONETS M04 26 Sep 09:18:56 09:27:37 65° 92° (E) 09:36:20
O/OREOS (USA 219) 26 Sep 09:27:58 09:31:10 19° 302° (WNW) 09:34:23 437.305
CUBEBUG 2 26 Sep 09:30:55 09:35:00 43° 99° (E) 09:39:11 437.445
AAUSAT CUBESAT 2 26 Sep 09:33:35 09:37:39 47° 99° (E) 09:41:41 437.432
FUNcube-1 26 Sep 09:46:06 09:49:37 24° 95° (E) 09:53:12 145.935
CINEMA 3 26 Sep 09:48:01 09:51:36 29° 289° (WNW) 09:55:14 145.822/145.860
UWE-3 26 Sep 09:52:56 09:57:07 50° 100° (E) 10:01:24 435.000/436.395/437.385
UNISAT 6 26 Sep 10:01:48 10:05:11 23° 69° (ENE) 10:08:33 437.425
PRISM 26 Sep 10:08:32 10:12:12 30° 263° (W) 10:15:54 437.425
COMPASS 1 26 Sep 10:16:06 10:20:04 40° 287° (WNW) 10:23:59 437.405
Cosmos 2499 26 Sep 10:23:02 10:30:07 56° 281° (W) 10:37:02 435.465 / 435.565
BEESAT 2 26 Sep 10:23:04 10:25:19 14° 46° (NE) 10:27:33 435.950
ZACube-1 26 Sep 10:26:26 10:30:46 77° 103° (ESE) 10:35:11 437.345
Oscar 11 26 Sep 10:28:06 10:32:29 78° 102° (ESE) 10:36:50 145.826/435.025
ANTELSAT 26 Sep 10:36:20 10:40:32 57° 75° (ENE) 10:44:42 437.575/2403.000
CUTE 1.7 + AOD 2 26 Sep 10:38:13 10:39:56 12° 295° (WNW) 10:41:40 437.475
CANX-2 26 Sep 10:40:06 10:40:45 10° 296° (WNW) 10:41:23 2200.000
SEEDS 26 Sep 10:42:25 10:44:53 15° 294° (WNW) 10:47:19 437.485
